User: anonymous   Login
Location: Chanteloup
(48.8560°N, 2.7390°E)
Time: 05:23:04
(UTC+00:00)
Language:

CZ-4 R/B - Orbit

View from above orbital plane
View from above orbital plane
View from above satellite
View from above satellite

Ground track
Ground track

The orbit data is extracted from the following two-line orbital elements,

1 29507U 06046C   22017.59483393  .00000681  00000-0  56678-4 0  9996
2 29507  97.7512  48.2399 0046487  15.8832 344.3837 15.01291047832237
Epoch (UTC): 17 January 2022 14:16:33
Eccentricity: 0.0046487
inclination: 97.7512°
perigee height: 530 km
apogee height: 595 km
right ascension of ascending node: 48.2399°
argument of perigee: 15.8832°
revolutions per day: 15.01291047
mean anomaly at epoch: 344.3837°
orbit number at epoch: 83223

The dashed part of the orbit path shows where the satellite is in the earth's shadow,  

DLR